| time (UTC) | temp F | wind direction | speed MPH | gust MPH | rain 1hr in | rain 24hr in | rain mn in | humidity % | barometer mb |
| 20260507191533 | 67 | 316 | 18.0 | 23.0 | 0.00 | 0.00 | 0.00 | 41 | 1018.5 |
| 20260507190029 | 66 | 317 | 18.0 | 23.0 | 0.00 | 0.00 | 0.00 | 43 | 1018.7 |
| 20260507184529 | 66 | 324 | 17.0 | 23.0 | 0.00 | 0.00 | 0.00 | 44 | 1018.9 |
| 20260507183041 | 66 | 326 | 15.0 | 22.0 | 0.00 | 0.00 | 0.00 | 45 | 1019.1 |
| 20260507181608 | 65 | 330 | 13.0 | 19.0 | 0.00 | 0.00 | 0.00 | 47 | 1019.4 |
| 20260507180107 | 64 | 326 | 13.0 | 19.0 | 0.00 | 0.00 | 0.00 | 48 | 1019.4 |
| 20260507174530 | 63 | 325 | 12.0 | 20.0 | 0.00 | 0.00 | 0.00 | 50 | 1019.5 |
| 20260507173042 | 64 | 333 | 11.0 | 17.0 | 0.00 | 0.00 | 0.00 | 50 | 1019.8 |
| 20260507173033 | 64 | 335 | 9.0 | 15.0 | 0.00 | 0.00 | 0.00 | 51 | 1020.0 |
| 20260507170112 | 64 | 333 | 10.0 | 17.0 | 0.00 | 0.00 | 0.00 | 51 | 1020.0 |
| 20260507164528 | 64 | 325 | 12.0 | 18.0 | 0.00 | 0.00 | 0.00 | 52 | 1020.0 |
| 20260507163031 | 64 | 318 | 11.0 | 15.0 | 0.00 | 0.00 | 0.00 | 53 | 1020.1 |
| 20260507161542 | 63 | 317 | 10.0 | 16.0 | 0.00 | 0.00 | 0.00 | 55 | 1020.2 |
| 20260507160036 | 62 | 310 | 8.0 | 13.0 | 0.00 | 0.00 | 0.00 | 57 | 1020.4 |
| 20260507154531 | 61 | 310 | 8.0 | 15.0 | 0.00 | 0.00 | 0.00 | 59 | 1020.6 |
| 20260507153032 | 60 | 42 | 5.0 | 19.0 | 0.00 | 0.00 | 0.00 | 63 | 1020.7 |
| 20260507150038 | 58 | 265 | 2.0 | 10.0 | 0.00 | 0.00 | 0.00 | 67 | 1020.8 |
| 20260507144532 | 55 | 301 | 4.0 | 10.0 | 0.00 | 0.00 | 0.00 | 71 | 1020.7 |
| 20260507143031 | 53 | 308 | 9.0 | 18.0 | 0.00 | 0.00 | 0.00 | 74 | 1020.5 |
| 20260507140032 | 52 | 313 | 9.0 | 16.0 | 0.00 | 0.00 | 0.00 | 77 | 1020.3 |
| 20260507134533 | 52 | 314 | 13.0 | 20.0 | 0.00 | 0.00 | 0.00 | 77 | 1020.0 |
| 20260507133030 | 52 | 313 | 16.0 | 22.0 | 0.00 | 0.00 | 0.00 | 77 | 1019.9 |
| 20260507131530 | 52 | 314 | 16.0 | 21.0 | 0.00 | 0.00 | 0.00 | 78 | 1019.9 |
| 20260507130031 | 52 | 314 | 15.0 | 19.0 | 0.00 | 0.00 | 0.00 | 78 | 1020.0 |
| 20260507124530 | 52 | 316 | 14.0 | 22.0 | 0.00 | 0.00 | 0.00 | 78 | 1020.1 |
| 20260507123029 | 52 | 316 | 14.0 | 20.0 | 0.00 | 0.00 | 0.00 | 77 | 1020.0 |
| 20260507121531 | 52 | 316 | 14.0 | 19.0 | 0.00 | 0.00 | 0.00 | 76 | 1019.9 |
| 20260507120031 | 53 | 316 | 13.0 | 18.0 | 0.00 | 0.00 | 0.00 | 75 | 1019.8 |
| 20260507114606 | 53 | 313 | 14.0 | 19.0 | 0.00 | 0.00 | 0.00 | 75 | 1019.6 |
| 20260507113030 | 54 | 311 | 13.0 | 24.0 | 0.00 | 0.00 | 0.00 | 74 | 1019.5 |
| 20260507111535 | 54 | 311 | 14.0 | 21.0 | 0.00 | 0.00 | 0.00 | 74 | 1019.4 |
| 20260507110029 | 54 | 303 | 14.0 | 21.0 | 0.00 | 0.00 | 0.00 | 75 | 1019.2 |
| 20260507104607 | 54 | 312 | 16.0 | 22.0 | 0.00 | 0.00 | 0.00 | 75 | 1019.0 |
| 20260507103032 | 54 | 312 | 15.0 | 19.0 | 0.00 | 0.00 | 0.00 | 75 | 1019.1 |
| 20260507100050 | 55 | 315 | 13.0 | 18.0 | 0.00 | 0.00 | 0.00 | 72 | 1019.3 |
| 20260507094530 | 56 | 314 | 13.0 | 18.0 | 0.00 | 0.00 | 0.00 | 72 | 1019.4 |
| 20260507093030 | 56 | 314 | 12.0 | 17.0 | 0.00 | 0.00 | 0.00 | 72 | 1019.5 |
| 20260507091530 | 56 | 323 | 12.0 | 18.0 | 0.00 | 0.00 | 0.00 | 73 | 1019.5 |
| 20260507090031 | 56 | 322 | 8.0 | 17.0 | 0.00 | 0.00 | 0.00 | 73 | 1019.5 |
| 20260507084530 | 56 | 336 | 4.0 | 8.0 | 0.00 | 0.00 | 0.00 | 73 | 1019.4 |
| 20260507083028 | 56 | 359 | 5.0 | 8.0 | 0.00 | 0.00 | 0.00 | 72 | 1019.4 |
| 20260507081531 | 57 | 353 | 5.0 | 9.0 | 0.00 | 0.00 | 0.00 | 71 | 1019.4 |
| 20260507080030 | 58 | 336 | 5.0 | 8.0 | 0.00 | 0.00 | 0.00 | 71 | 1019.5 |
| 20260507074531 | 58 | 315 | 7.0 | 14.0 | 0.00 | 0.00 | 0.00 | 72 | 1019.4 |
| 20260507073031 | 58 | 315 | 10.0 | 16.0 | 0.00 | 0.00 | 0.00 | 72 | 1019.3 |
| 20260507071531 | 58 | 315 | 11.0 | 20.0 | 0.00 | 0.00 | 0.00 | 72 | 1019.3 |
| 20260507070105 | 58 | 311 | 11.0 | 17.0 | 0.00 | 0.00 | 0.00 | 72 | 1019.3 |
| 20260507063032 | 59 | 316 | 7.0 | 12.0 | 0.00 | 0.00 | 0.00 | 70 | 1019.5 |
| 20260507061529 | 59 | 314 | 10.0 | 17.0 | 0.00 | 0.00 | 0.00 | 69 | 1019.5 |
| 20260507060033 | 60 | 313 | 11.0 | 20.0 | 0.00 | 0.00 | 0.00 | 68 | 1019.6 |
| 20260507054536 | 60 | 310 | 11.0 | 18.0 | 0.00 | 0.00 | 0.00 | 67 | 1019.7 |
| 20260507053108 | 60 | 311 | 10.0 | 17.0 | 0.00 | 0.00 | 0.00 | 66 | 1019.8 |
| 20260507051530 | 61 | 304 | 8.0 | 12.0 | 0.00 | 0.00 | 0.00 | 63 | 1019.9 |
| 20260507050034 | 61 | 297 | 8.0 | 17.0 | 0.00 | 0.00 | 0.00 | 61 | 1019.8 |
| 20260507044528 | 62 | 306 | 8.0 | 14.0 | 0.00 | 0.00 | 0.00 | 58 | 1019.8 |
| 20260507043031 | 63 | 309 | 7.0 | 14.0 | 0.00 | 0.00 | 0.00 | 54 | 1019.8 |
| 20260507041531 | 64 | 300 | 7.0 | 13.0 | 0.00 | 0.00 | 0.00 | 52 | 1019.6 |
| 20260507034607 | 65 | 299 | 6.0 | 12.0 | 0.00 | 0.00 | 0.00 | 50 | 1019.4 |
| 20260507031529 | 66 | 286 | 2.0 | 11.0 | 0.00 | 0.00 | 0.00 | 50 | 1019.2 |
| 20260507023033 | 67 | 311 | 7.0 | 19.0 | 0.00 | 0.00 | 0.00 | 48 | 1018.9 |
| 20260507021606 | 67 | 315 | 11.0 | 20.0 | 0.00 | 0.00 | 0.00 | 48 | 1018.8 |
| 20260507020031 | 68 | 312 | 11.0 | 20.0 | 0.00 | 0.00 | 0.00 | 47 | 1018.6 |
| 20260507014530 | 68 | 312 | 13.0 | 24.0 | 0.00 | 0.00 | 0.00 | 46 | 1018.5 |
| 20260507013031 | 68 | 314 | 13.0 | 23.0 | 0.00 | 0.00 | 0.00 | 46 | 1018.4 |
| 20260507011530 | 69 | 320 | 11.0 | 20.0 | 0.00 | 0.00 | 0.00 | 47 | 1018.5 |
| 20260507010030 | 69 | 321 | 12.0 | 24.0 | 0.00 | 0.00 | 0.00 | 45 | 1018.4 |
| 20260507004531 | 70 | 314 | 13.0 | 21.0 | 0.00 | 0.00 | 0.00 | 44 | 1018.2 |
| 20260507000049 | 71 | 312 | 14.0 | 22.0 | 0.00 | 0.00 | 0.00 | 42 | 1017.9 |
| 20260506234530 | 73 | 313 | 17.0 | 28.0 | 0.00 | 0.00 | 0.00 | 40 | 1017.7 |
| 20260506233103 | 74 | 315 | 19.0 | 28.0 | 0.00 | 0.00 | 0.00 | 39 | 1017.4 |
| 20260506231536 | 75 | 311 | 22.0 | 34.0 | 0.00 | 0.00 | 0.00 | 39 | 1017.3 |
| 20260506224530 | 75 | 312 | 17.0 | 26.0 | 0.00 | 0.00 | 0.00 | 39 | 1017.6 |
| 20260506221532 | 76 | 312 | 17.0 | 30.0 | 0.00 | 0.00 | 0.00 | 41 | 1018.3 |
| 20260506214532 | 76 | 316 | 15.0 | 24.0 | 0.00 | 0.00 | 0.00 | 41 | 1018.2 |
| 20260506213030 | 75 | 308 | 18.0 | 29.0 | 0.00 | 0.00 | 0.00 | 43 | 1017.8 |
| 20260506210037 | 74 | 310 | 22.0 | 33.0 | 0.00 | 0.00 | 0.00 | 44 | 1017.6 |
| 20260506204607 | 74 | 308 | 20.0 | 33.0 | 0.00 | 0.00 | 0.00 | 45 | 1017.8 |
| 20260506203029 | 73 | 307 | 19.0 | 28.0 | 0.00 | 0.00 | 0.00 | 46 | 1018.1 |
| 20260506200030 | 73 | 308 | 17.0 | 25.0 | 0.00 | 0.00 | 0.00 | 48 | 1017.9 |
| 20260506194538 | 73 | 311 | 17.0 | 28.0 | 0.00 | 0.00 | 0.00 | 48 | 1018.0 |
| 20260506193029 | 72 | 312 | 13.0 | 26.0 | 0.00 | 0.00 | 0.00 | 50 | 1018.4 |